Location: ??????????
(54.4061°N, 22.6114°E)
Time: 05:14:41
(UTC+00:00)

Cosmos 2263 Rocket - Pass Details

Date: 23 October 2019
Orbit: 825 x 847 km, 71.0° (Epoch: 18 November)

Event Time Altitude Azimuth Distance (km) Brightness Sun altitude
Rises 18:28:40 0° 306° (NW) 3,398 6.5 -28.6°
Reaches altitude 10° 18:32:20 10° 330° (NNW) 2,458 5.2 -29.1°
Maximum altitude 18:35:24 15° 3° (N) 2,138 4.5 -29.5°
Enters shadow 18:36:59 13° 22° (NNE) 2,224 4.4 -29.7°
